Monroe, MI

2:29 AM EDT on March 23, 2017 (GMT -0400)
Custer

Weather History for KTTF - October, 2012

Change the Weather History Date:

Wednesday, October 3, 2012

  Actual Average Record
Temperature  
Mean Temperature 62 °F -  
Max Temperature 66 °F 67 °F 88 °F (1951)
Min Temperature 57 °F 46 °F 28 °F (1974)
Degree Days  
Heating Degree Days 4    
Growing Degree Days 12 (Base 50)    
Moisture  
Dew Point 56 °F    
Average Humidity 85    
Maximum Humidity 100    
Minimum Humidity 68    
Precipitation  
Precipitation 0.00 in - - ()
Sea Level Pressure  
Sea Level Pressure 29.99 in    
Wind  
Wind Speed 3 mph (SSW)    
Max Wind Speed 10 mph    
Max Gust Speed -    
Visibility 7 miles    
Events Fog , Rain    
Averages and records for this station are not official NWS values.
T = Trace of Precipitation, MM = Missing Value Source: NWS Daily Summary

Daily Weather History Graph

Daily Weather History Graph

Search for Another Location

Airport or City:

Trip Planner

Search our weather history database for the weather conditions in past years. The results will help you decide how hot, cold, wet, or windy it might be!

Date:

Astronomy

Oct. 03, 2012 Rise Set
Actual Time 7:33 AM EDT 7:11 PM EDT
Civil Twilight 7:05 AM EDT 7:38 PM EDT
Nautical Twilight 6:33 AM EDT 8:11 PM EDT
Astronomical Twilight 6:00 AM EDT 8:43 PM EDT
Moon 8:58 PM EDT (10/3) 10:59 AM EDT (10/3)
Length of Visible Light 12h 33m
Length of Day
11h 37m
Waning Gibbous, 89% of the Moon is Illuminated
Oct 3
Waning Gibbous
Oct 8
Last Quarter
Oct 15
New
Oct 21
First Quarter
Oct 29
Full

Hourly Weather History & Observations

Time (EDT) Temp. Dew Point Humidity Pressure Visibility Wind Dir Wind Speed Gust Speed Precip Events Conditions
12:35 AM 59.0 °F 57.2 °F 94% 29.89 in 7.0 mi Calm Calm - N/A   Overcast
12:55 AM 59.0 °F 55.4 °F 88% 29.88 in 7.0 mi North 5.8 mph - N/A   Overcast
1:15 AM 59.0 °F 55.4 °F 88% 29.88 in 10.0 mi NNE 5.8 mph - N/A   Overcast
1:36 AM 59.0 °F 55.4 °F 88% 29.88 in 10.0 mi North 3.5 mph - N/A   Overcast
1:56 AM 57.2 °F 55.4 °F 94% 29.89 in 10.0 mi Calm Calm - N/A   Overcast
2:11 AM 57.2 °F 55.4 °F 94% 29.89 in 10.0 mi Calm Calm - N/A   Overcast
2:31 AM 59.0 °F 55.4 °F 88% 29.90 in 10.0 mi Calm Calm - N/A   Overcast
2:51 AM 57.2 °F 57.2 °F 100% 29.90 in 4.0 mi Calm Calm - N/A Rain Light Rain
3:11 AM 57.2 °F 57.2 °F 100% 29.90 in 5.0 mi Calm Calm - N/A   Overcast
3:31 AM 57.2 °F 57.2 °F 100% 29.90 in 4.0 mi Calm Calm - N/A   Overcast
3:51 AM 57.2 °F 57.2 °F 100% 29.90 in 3.0 mi Calm Calm - N/A   Overcast
4:11 AM 57.2 °F 57.2 °F 100% 29.91 in 3.0 mi Calm Calm - N/A   Overcast
4:32 AM 57.2 °F 57.2 °F 100% 29.91 in 2.5 mi Calm Calm - N/A   Overcast
4:52 AM 57.2 °F 57.2 °F 100% 29.92 in 3.0 mi Calm Calm - N/A   Overcast
5:12 AM 57.2 °F 57.2 °F 100% 29.93 in 2.0 mi SW 3.5 mph - N/A   Overcast
5:32 AM 57.2 °F 57.2 °F 100% 29.93 in 1.2 mi Calm Calm - N/A Rain Light Rain
5:52 AM 57.2 °F 57.2 °F 100% 29.94 in 1.5 mi WSW 3.5 mph - N/A   Overcast
6:12 AM 57.2 °F 57.2 °F 100% 29.94 in 1.0 mi WSW 3.5 mph - N/A   Overcast
6:32 AM 57.2 °F 57.2 °F 100% 29.95 in 1.0 mi Calm Calm - N/A   Overcast
6:52 AM 57.2 °F 57.2 °F 100% 29.96 in 0.8 mi Calm Calm - N/A   Overcast
7:33 AM 57.2 °F 57.2 °F 100% 29.96 in 0.5 mi Calm Calm - N/A Fog Fog
7:53 AM 57.2 °F 57.2 °F 100% 29.97 in 0.2 mi Calm Calm - N/A Fog Fog
8:13 AM 57.2 °F 57.2 °F 100% 29.97 in 0.2 mi Calm Calm - N/A Fog Fog
8:33 AM 57.2 °F 57.2 °F 100% 29.97 in 0.2 mi Calm Calm - N/A Fog Fog
8:53 AM 59.0 °F 57.2 °F 94% 29.98 in 1.0 mi Calm Calm - N/A   Overcast
9:13 AM 59.0 °F 59.0 °F 100% 29.98 in 1.0 mi Calm Calm - N/A   Overcast
9:33 AM 60.8 °F 59.0 °F 94% 30.00 in 1.8 mi Calm Calm - N/A   Overcast
9:53 AM 60.8 °F 60.8 °F 100% 30.00 in 2.0 mi Calm Calm - N/A   Overcast
10:14 AM 62.6 °F 60.8 °F 94% 30.00 in 2.5 mi Calm Calm - N/A   Overcast
10:34 AM 62.6 °F 60.8 °F 94% 30.00 in 4.0 mi SSW 5.8 mph - N/A   Overcast
11:14 AM 64.4 °F 59.0 °F 83% 30.00 in 7.0 mi SW 4.6 mph - N/A   Overcast
11:34 AM 64.4 °F 59.0 °F 83% 30.01 in 10.0 mi SW 6.9 mph - N/A   Overcast
11:54 AM 64.4 °F 57.2 °F 77% 30.01 in 10.0 mi SSW 9.2 mph - N/A   Mostly Cloudy
12:14 PM 66.2 °F 57.2 °F 73% 30.00 in 10.0 mi SW 8.1 mph - N/A   Overcast
12:34 PM 64.4 °F 55.4 °F 73% 30.01 in 10.0 mi SSW 10.4 mph - N/A   Overcast
12:54 PM 66.2 °F 57.2 °F 73% 30.01 in 10.0 mi SW 8.1 mph - N/A   Overcast
1:15 PM 64.4 °F 55.4 °F 73% 30.01 in 10.0 mi SW 10.4 mph - N/A   Overcast
1:35 PM 64.4 °F 55.4 °F 73% 30.01 in 10.0 mi SW 6.9 mph - N/A   Overcast
1:55 PM 64.4 °F 53.6 °F 68% 30.01 in 10.0 mi SSW 10.4 mph - N/A   Overcast
2:15 PM 64.4 °F 55.4 °F 73% 30.01 in 10.0 mi SSW 8.1 mph - N/A   Overcast
2:35 PM 64.4 °F 55.4 °F 73% 30.01 in 10.0 mi SSW 10.4 mph - N/A   Overcast
2:55 PM 64.4 °F 55.4 °F 73% 30.01 in 10.0 mi SW 6.9 mph - N/A   Overcast
3:15 PM 62.6 °F 53.6 °F 72% 30.01 in 10.0 mi SW 8.1 mph - N/A   Overcast
3:35 PM 62.6 °F 55.4 °F 77% 30.02 in 10.0 mi WSW 9.2 mph - N/A   Overcast
3:55 PM 62.6 °F 55.4 °F 77% 30.02 in 10.0 mi SSW 6.9 mph - N/A   Overcast
4:16 PM 62.6 °F 55.4 °F 77% 30.02 in 10.0 mi SSW 5.8 mph - N/A   Overcast
4:31 PM 62.6 °F 55.4 °F 77% 30.02 in 10.0 mi SW 6.9 mph - N/A   Overcast
4:51 PM 62.6 °F 55.4 °F 77% 30.02 in 10.0 mi SSW 6.9 mph - N/A   Overcast
5:11 PM 64.4 °F 55.4 °F 73% 30.02 in 10.0 mi South 4.6 mph - N/A   Overcast
5:31 PM 64.4 °F 53.6 °F 68% 30.03 in 10.0 mi SSW 8.1 mph - N/A   Overcast
5:51 PM 64.4 °F 53.6 °F 68% 30.03 in 10.0 mi South 4.6 mph - N/A   Overcast
6:11 PM 62.6 °F 53.6 °F 72% 30.03 in 10.0 mi SSW 6.9 mph - N/A   Overcast
6:31 PM 62.6 °F 55.4 °F 77% 30.04 in 10.0 mi SSW 5.8 mph - N/A   Overcast
6:51 PM 62.6 °F 55.4 °F 77% 30.04 in 10.0 mi South 4.6 mph - N/A   Overcast
7:12 PM 62.6 °F 55.4 °F 77% 30.04 in 10.0 mi South 3.5 mph - N/A   Overcast
7:32 PM 60.8 °F 55.4 °F 82% 30.04 in 10.0 mi South 3.5 mph - N/A   Mostly Cloudy
7:52 PM 62.6 °F 55.4 °F 77% 30.05 in 10.0 mi South 4.6 mph - N/A   Overcast
8:12 PM 62.6 °F 55.4 °F 77% 30.05 in 10.0 mi Calm Calm - N/A   Overcast
8:32 PM 62.6 °F 55.4 °F 77% 30.06 in 10.0 mi South 5.8 mph - N/A   Overcast
8:52 PM 62.6 °F 55.4 °F 77% 30.06 in 10.0 mi South 5.8 mph - N/A   Overcast
9:12 PM 62.6 °F 55.4 °F 77% 30.06 in 10.0 mi South 4.6 mph - N/A   Overcast
9:32 PM 62.6 °F 55.4 °F 77% 30.06 in 10.0 mi South 5.8 mph - N/A   Overcast
9:52 PM 60.8 °F 55.4 °F 82% 30.07 in 10.0 mi SSW 3.5 mph - N/A   Scattered Clouds
10:13 PM 59.0 °F 55.4 °F 88% 30.07 in 10.0 mi South 3.5 mph - N/A   Scattered Clouds
10:33 PM 60.8 °F 55.4 °F 82% 30.07 in 10.0 mi South 4.6 mph - N/A   Mostly Cloudy
10:53 PM 60.8 °F 55.4 °F 82% 30.08 in 10.0 mi South 4.6 mph - N/A   Overcast
11:13 PM 60.8 °F 55.4 °F 82% 30.08 in 10.0 mi South 4.6 mph - N/A   Overcast
11:33 PM 60.8 °F 55.4 °F 82% 30.07 in 10.0 mi SSE 3.5 mph - N/A   Overcast
11:53 PM 60.8 °F 55.4 °F 82% 30.07 in 10.0 mi SSE 3.5 mph - N/A   Overcast